Location: Sunkist
(34.0772°N, 117.1909°W)
Time: 15:41:03
(UTC+00:00)

Cosmos 1553 Rocket - Pass Details

Date: 13 April 2024
Orbit: 940 x 1008 km, 82.9° (Epoch: 19 May)

Event Time Altitude Azimuth Distance (km) Brightness Sun altitude
Rises 12:08:39 0° 348° (NNW) 3,698 7.2 -14.8°
Reaches altitude 10° 12:11:14 10° 344° (NNW) 2,737 6.4 -14.4°
Maximum altitude 12:17:19 56° 269° (W) 1,141 4.0 -13.2°
Drops below altitude 10° 12:23:16 10° 192° (SSW) 2,676 6.0 -12.0°
Sets 12:25:47 0° 188° (S) 3,610 6.7 -11.5°
